This is the latest recevied weather packets stored in our database for station/object N5UKZ-WX. If no packets are shown the sender has not sent any weather packets the latest 10 day(s).
| Time | Temp. | Humidity | Pressure | Rain* | Wind** | Luminosity | Snow |
|---|---|---|---|---|---|---|---|
| 1777610154 | 20.56° C | 100% | 1012.6 hPa | 0 mm | - | - | - |
| 1777609254 | 21.11° C | 100% | 1012.6 hPa | 0 mm | - | - | - |
| 1777608354 | 21.67° C | 100% | 1012.2 hPa | 0 mm | - | - | - |
| 1777607454 | 21.11° C | 100% | 1012.6 hPa | 0 mm | - | - | - |
| 1777606553 | 21.11° C | 100% | 1012.2 hPa | 0 mm | - | - | - |
| 1777605653 | 21.67° C | 100% | 1012.2 hPa | 0 mm | - | - | - |
| 1777604753 | 21.67° C | 100% | 1012.6 hPa | 0 mm | - | - | - |
| 1777603853 | 21.11° C | 100% | 1012.2 hPa | 0 mm | - | - | - |
| 1777602953 | 21.11° C | 100% | 1012.2 hPa | 0 mm | - | - | - |
| 1777602052 | 20.56° C | 100% | 1012.2 hPa | 0 mm | - | - | - |
| 1777601152 | 21.11° C | 100% | 1011.9 hPa | 0 mm | - | - | - |
| 1777600252 | 21.11° C | 100% | 1011.6 hPa | 0 mm | - | - | - |
| 1777599352 | 20° C | 100% | 1011.6 hPa | 0 mm | - | - | - |
| 1777598452 | 20° C | 100% | 1010.9 hPa | 0 mm | - | - | - |
| 1777597552 | 20° C | 100% | 1010.5 hPa | 0 mm | - | - | - |
| 1777596651 | 21.11° C | 100% | 1010.2 hPa | 0 mm | - | - | - |
| 1777595751 | 20° C | 100% | 1010.2 hPa | 0 mm | - | - | - |
| 1777594851 | 20° C | 100% | 1009.9 hPa | 0 mm | - | - | - |
| 1777593951 | 21.11° C | 100% | 1010.5 hPa | 0 mm | - | - | - |
| 1777593050 | 20.56° C | 100% | 1010.9 hPa | 0 mm | - | - | - |
| 1777592150 | 20° C | 100% | 1010.5 hPa | 0 mm | - | - | - |
| 1777591250 | 20° C | 100% | 1011.6 hPa | 0 mm | - | - | - |
| 1777590350 | 20.56° C | 100% | 1011.2 hPa | 0 mm | - | - | - |
| 1777589450 | 19.44° C | 100% | 1010.5 hPa | 0 mm | - | - | - |
| 1777588550 | 19.44° C | 100% | 1010.2 hPa | 0 mm | - | - | - |
* Rain latest hour (hover to see other rain measurements)
** Current wind speed in m/s (hover to see current wind gust speed)